Location: *
(38.9555°S, 57.3572°E)
Time: 01:36:47
(UTC+00:00)

SL-4 R/B - Pass Details

Date: 15 July 2020
Orbit: 428 x 666 km, 51.6° (Epoch: 06 August)

Event Time Altitude Azimuth Distance (km) Brightness Sun altitude
Rises 14:44:57 0° 282° (WNW) 3,012 7.5 -18.6°
Reaches altitude 10° 14:47:29 10° 273° (W) 2,103 6.2 -19.0°
Maximum altitude 14:51:57 35° 207° (SSW) 1,082 3.6 -19.9°
Enters shadow 14:53:59 25° 162° (SSE) 1,349 3.7 -20.3°
